Location: Gudip?du
(17.0263°N, 80.8301°E)
Time: 11:24:57
(UTC+00:00)

GPS 2-12 Rocket1 - Pass Details

Date: 03 August 2024
Orbit: 572 x 630 km, 20.0° (Epoch: 12 September)

Event Time Altitude Azimuth Distance (km) Brightness Sun altitude
Rises 13:33:15 0° 267° (W) 2,905 7.9 -6.4°
Reaches altitude 10° 13:35:37 10° 269° (W) 1,999 7.0 -7.0°
Maximum altitude 13:40:18 69° 353° (N) 672 3.4 -8.0°
Drops below altitude 10° 13:44:58 10° 77° (ENE) 1,992 5.2 -9.1°
Enters shadow 13:45:38 - 78° (ENE) 2,240 5.4 -9.2°
